28-05-2023, 00:00:08,     20,    0.0,    9.8,   0.00,   0.00, 1019.5,   78.4, -999.0
28-05-2023, 00:00:18,     20,    0.0,    9.8,   0.00,   0.00, 1019.5,   78.7, -999.0
28-05-2023, 00:00:28,     19,    0.0,    9.7,   0.00,   0.00, 1019.6,   78.9, -999.0
28-05-2023, 00:00:38,     20,    0.0,    9.7,   0.00,   0.00, 1019.5,   78.9, -999.0
28-05-2023, 00:00:48,     19,    0.0,    9.8,   0.00,   0.00, 1019.5,   78.9, -999.0
28-05-2023, 00:00:58,     20,    0.0,    9.8,   0.00,   0.00, 1019.5,   79.0, -999.0
28-05-2023, 00:01:08,     20,    0.0,    9.7,   0.00,   0.00, 1019.5,   78.9, -999.0
28-05-2023, 00:01:18,     19,    0.0,    9.8,   0.00,   0.00, 1019.5,   79.0, -999.0
28-05-2023, 00:01:28,     20,    0.0,    9.8,   0.00,   0.00, 1019.5,   78.8, -999.0
28-05-2023, 00:01:38,     19,    0.0,    9.8,   0.00,   0.00, 1019.5,   78.9, -999.0
28-05-2023, 00:01:48,     20,    0.0,    9.8,   0.00,   0.00, 1019.5,   79.0, -999.0
28-05-2023, 00:01:57,     20,    0.0,    9.9,   0.00,   0.00, 1019.5,   79.0, -999.0
28-05-2023, 00:02:08,     20,    0.0,    9.8,   0.00,   0.00, 1019.5,   79.1, -999.0
28-05-2023, 00:02:18,     20,    0.0,    9.8,   0.00,   0.00, 1019.5,   79.0, -999.0
28-05-2023, 00:02:27,     20,    0.0,    9.9,   0.00,   0.00, 1019.5,   79.0, -999.0
28-05-2023, 00:02:37,     20,    0.0,    9.8,   0.00,   0.00, 1019.5,   79.0, -999.0
28-05-2023, 00:02:48,     20,    0.0,    9.7,   0.00,   0.00, 1019.5,   79.0, -999.0
28-05-2023, 00:02:58,     20,    0.0,    9.7,   0.00,   0.00, 1019.5,   79.0, -999.0
28-05-2023, 00:03:07,     20,    0.0,    9.7,   0.00,   0.00, 1019.5,   79.0, -999.0
28-05-2023, 00:03:17,     19,    0.0,    9.7,   0.00,   0.00, 1019.5,   78.9, -999.0
28-05-2023, 00:03:28,     24,    0.0,    9.7,   0.00,   0.00, 1019.5,   78.8, -999.0
28-05-2023, 00:03:37,     19,    0.0,    9.6,   0.00,   0.00, 1019.5,   78.9, -999.0
28-05-2023, 00:03:47,     20,    0.0,    9.7,   0.00,   0.00, 1019.5,   79.0, -999.0
28-05-2023, 00:03:57,     20,    0.0,    9.7,   0.00,   0.00, 1019.5,   79.1, -999.0
28-05-2023, 00:04:07,     19,    0.0,    9.8,   0.00,   0.00, 1019.5,   79.1, -999.0
28-05-2023, 00:04:17,     19,    0.0,    9.8,   0.00,   0.00, 1019.5,   79.1, -999.0
28-05-2023, 00:04:27,     20,    0.0,    9.8,   0.00,   0.00, 1019.5,   79.1, -999.0
28-05-2023, 00:04:37,     19,    0.0,    9.7,   0.00,   0.00, 1019.5,   79.0, -999.0
28-05-2023, 00:04:47,     19,    0.0,    9.7,   0.00,   0.00, 1019.5,   78.9, -999.0
28-05-2023, 00:04:57,     20,    0.0,    9.8,   0.00,   0.00, 1019.5,   79.0, -999.0
28-05-2023, 00:05:07,     20,    0.0,    9.8,   0.00,   0.00, 1019.5,   79.1, -999.0
28-05-2023, 00:05:17,     20,    0.0,    9.8,   0.00,   0.00, 1019.5,   79.3, -999.0
28-05-2023, 00:05:27,     20,    0.0,    9.7,   0.00,   0.00, 1019.5,   79.3, -999.0
28-05-2023, 00:05:37,     20,    0.0,    9.7,   0.00,   0.00, 1019.5,   79.4, -999.0
28-05-2023, 00:05:47,     20,    0.0,    9.7,   0.00,   0.00, 1019.5,   79.5, -999.0
28-05-2023, 00:05:57,     20,    0.0,    9.8,   0.00,   0.00, 1019.5,   79.4, -999.0
28-05-2023, 00:06:07,     16,    0.0,    9.8,   0.00,   0.00, 1019.5,   79.4, -999.0
28-05-2023, 00:06:17,     20,    0.0,    9.8,   0.00,   0.00, 1019.5,   79.3, -999.0
28-05-2023, 00:06:27,     19,    0.0,    9.7,   0.00,   0.00, 1019.5,   79.2, -999.0
28-05-2023, 00:06:37,     19,    0.0,    9.8,   0.00,   0.00, 1019.5,   79.1, -999.0
28-05-2023, 00:06:47,     20,    0.0,    9.8,   0.00,   0.00, 1019.5,   79.1, -999.0
28-05-2023, 00:06:57,     18,    0.0,    9.7,   0.00,   0.00, 1019.5,   79.0, -999.0
28-05-2023, 00:07:07,     20,    0.0,    9.8,   0.00,   0.00, 1019.5,   78.9, -999.0
28-05-2023, 00:07:17,     19,    0.0,    9.7,   0.00,   0.00, 1019.4,   78.9, -999.0
28-05-2023, 00:07:27,     20,    0.0,    9.7,   0.00,   0.00, 1019.5,   78.9, -999.0
28-05-2023, 00:07:37,     19,    0.0,    9.8,   0.00,   0.00, 1019.5,   79.0, -999.0
28-05-2023, 00:07:47,     19,    0.0,    9.8,   0.00,   0.00, 1019.5,   79.0, -999.0
28-05-2023, 00:07:57,     20,    0.0,    9.8,   0.00,   0.00, 1019.5,   79.0, -999.0
28-05-2023, 00:08:07,     20,    0.0,    9.8,   0.00,   0.00, 1019.5,   79.0, -999.0
28-05-2023, 00:08:17,     20,    0.0,    9.8,   0.00,   0.00, 1019.5,   79.0, -999.0
28-05-2023, 00:08:26,     20,    0.0,    9.8,   0.00,   0.00, 1019.4,   79.1, -999.0
28-05-2023, 00:08:38,     19,    0.0,    9.8,   0.00,   0.00, 1019.5,   78.9, -999.0
28-05-2023, 00:08:47,     20,    0.0,    9.7,   0.00,   0.00, 1019.4,   78.9, -999.0
28-05-2023, 00:08:56,     19,    0.0,    9.8,   0.00,   0.00, 1019.4,   78.9, -999.0
28-05-2023, 00:09:07,     20,    0.0,    9.8,   0.00,   0.00, 1019.4,   78.9, -999.0
28-05-2023, 00:09:17,     19,    0.0,    9.7,   0.00,   0.00, 1019.5,   79.1, -999.0
28-05-2023, 00:09:27,     19,    0.0,    9.8,   0.00,   0.00, 1019.5,   79.1, -999.0
28-05-2023, 00:09:36,     20,    0.0,    9.8,   0.00,   0.00, 1019.5,   79.1, -999.0
28-05-2023, 00:09:47,     20,    0.0,    9.9,   0.00,   0.00, 1019.4,   79.1, -999.0
28-05-2023, 00:09:57,     20,    0.0,    9.9,   0.00,   0.00, 1019.5,   79.1, -999.0
28-05-2023, 00:10:06,     20,    0.0,    9.8,   0.00,   0.00, 1019.5,   79.3, -999.0
28-05-2023, 00:10:16,     20,    0.0,    9.8,   0.00,   0.00, 1019.4,   79.2, -999.0
28-05-2023, 00:10:27,     20,    0.0,    9.8,   0.00,   0.00, 1019.5,   79.2, -999.0
28-05-2023, 00:10:36,     20,    0.0,    9.9,   0.00,   0.00, 1019.5,   79.3, -999.0
28-05-2023, 00:10:46,     19,    0.0,    9.8,   0.00,   0.00, 1019.4,   79.2, -999.0
28-05-2023, 00:10:56,     20,    0.0,    9.7,   0.00,   0.00, 1019.5,   79.2, -999.0
28-05-2023, 00:11:07,     20,    0.0,    9.8,   0.00,   0.00, 1019.4,   79.1, -999.0
28-05-2023, 00:11:16,     20,    0.0,    9.8,   0.00,   0.00, 1019.4,   79.1, -999.0
28-05-2023, 00:11:26,     20,    0.0,    9.9,   0.00,   0.00, 1019.4,   79.1, -999.0
28-05-2023, 00:11:37,     20,    0.0,    9.7,   0.00,   0.00, 1019.4,   79.3, -999.0
28-05-2023, 00:11:46,     20,    0.0,    9.8,   0.00,   0.00, 1019.4,   79.4, -999.0
28-05-2023, 00:11:56,     20,    0.0,    9.8,   0.00,   0.00, 1019.4,   79.6, -999.0
28-05-2023, 00:12:06,     20,    0.0,    9.7,   0.00,   0.00, 1019.4,   79.6, -999.0
28-05-2023, 00:12:16,     19,    0.0,    9.7,   0.00,   0.00, 1019.4,   79.5, -999.0
28-05-2023, 00:12:26,     19,    0.0,    9.8,   0.00,   0.00, 1019.4,   79.6, -999.0
28-05-2023, 00:12:36,     11,    0.0,    9.7,   0.00,   0.00, 1019.4,   79.7, -999.0
28-05-2023, 00:12:46,     20,    0.0,    9.8,   0.00,   0.00, 1019.4,   79.7, -999.0
28-05-2023, 00:12:56,     20,    0.0,    9.8,   0.00,   0.00, 1019.4,   79.7, -999.0
28-05-2023, 00:13:06,     20,    0.0,    9.8,   0.00,   0.00, 1019.4,   79.6, -999.0
28-05-2023, 00:13:16,     19,    0.0,    9.8,   0.00,   0.00, 1019.4,   79.5, -999.0
28-05-2023, 00:13:26,     19,    0.0,    9.7,   0.00,   0.00, 1019.4,   79.6, -999.0
28-05-2023, 00:13:36,     20,    0.0,    9.8,   0.00,   0.00, 1019.4,   79.9, -999.0
28-05-2023, 00:13:46,     19,    0.0,    9.7,   0.00,   0.00, 1019.4,   79.9, -999.0
28-05-2023, 00:13:56,     19,    0.0,    9.7,   0.00,   0.00, 1019.4,   80.0, -999.0
28-05-2023, 00:14:06,     20,    0.0,    9.7,   0.00,   0.00, 1019.4,   79.9, -999.0
28-05-2023, 00:14:16,     20,    0.0,    9.8,   0.00,   0.00, 1019.4,   79.8, -999.0
28-05-2023, 00:14:26,     20,    0.0,    9.8,   0.00,   0.00, 1019.4,   79.8, -999.0
28-05-2023, 00:14:36,     20,    0.0,    9.8,   0.00,   0.00, 1019.4,   79.7, -999.0
28-05-2023, 00:14:46,     19,    0.0,    9.7,   0.00,   0.00, 1019.4,   79.7, -999.0
28-05-2023, 00:14:56,     20,    0.0,    9.8,   0.00,   0.00, 1019.4,   79.7, -999.0
28-05-2023, 00:15:06,     20,    0.0,    9.6,   0.00,   0.00, 1019.4,   79.6, -999.0
28-05-2023, 00:15:16,     20,    0.0,    9.8,   0.00,   0.00, 1019.4,   79.5, -999.0
28-05-2023, 00:15:26,     20,    0.0,    9.8,   0.00,   0.00, 1019.4,   79.5, -999.0
28-05-2023, 00:15:36,     20,    0.0,    9.7,   0.00,   0.00, 1019.4,   79.6, -999.0
28-05-2023, 00:15:46,     19,    0.0,    9.7,   0.00,   0.00, 1019.4,   79.7, -999.0
28-05-2023, 00:15:56,     20,    0.0,    9.6,   0.00,   0.00, 1019.4,   79.7, -999.0
28-05-2023, 00:16:05,     20,    0.0,    9.7,   0.00,   0.00, 1019.4,   79.6, -999.0
28-05-2023, 00:16:16,     20,    0.0,    9.7,   0.00,   0.00, 1019.4,   79.5, -999.0
28-05-2023, 00:16:26,     20,    0.0,    9.8,   0.00,   0.00, 1019.4,   79.7, -999.0
28-05-2023, 00:16:35,     20,    0.0,    9.7,   0.00,   0.00, 1019.4,   79.7, -999.0
28-05-2023, 00:16:46,     20,    0.0,    9.7,   0.00,   0.00, 1019.4,   79.8, -999.0
28-05-2023, 00:16:56,     20,    0.0,    9.8,   0.00,   0.00, 1019.4,   79.8, -999.0
28-05-2023, 00:17:06,     20,    0.0,    9.8,   0.00,   0.00, 1019.4,   79.9, -999.0
28-05-2023, 00:17:15,     20,    0.0,    9.7,   0.00,   0.00, 1019.4,   79.8, -999.0
28-05-2023, 00:17:26,     20,    0.0,    9.7,   0.00,   0.00, 1019.4,   79.7, -999.0
28-05-2023, 00:17:36,     20,    0.0,    9.7,   0.00,   0.00, 1019.4,   79.6, -999.0
28-05-2023, 00:17:45,     20,    0.0,    9.7,   0.00,   0.00, 1019.4,   79.4, -999.0
28-05-2023, 00:17:55,     20,    0.0,    9.8,   0.00,   0.00, 1019.4,   79.5, -999.0
28-05-2023, 00:18:06,     20,    0.0,    9.7,   0.00,   0.00, 1019.4,   79.4, -999.0
28-05-2023, 00:18:16,     20,    0.0,    9.7,   0.00,   0.00, 1019.4,   79.5, -999.0
28-05-2023, 00:18:25,     20,    0.0,    9.7,   0.00,   0.00, 1019.4,   79.5, -999.0
28-05-2023, 00:18:35,     19,    0.0,    9.7,   0.00,   0.00, 1019.4,   79.3, -999.0
28-05-2023, 00:18:46,     20,    0.0,    9.6,   0.00,   0.00, 1019.4,   79.3, -999.0
28-05-2023, 00:18:55,     20,    0.0,    9.6,   0.00,   0.00, 1019.4,   79.4, -999.0
28-05-2023, 00:19:05,     19,    0.0,    9.6,   0.00,   0.00, 1019.4,   79.6, -999.0
28-05-2023, 00:19:15,     20,    0.0,    9.6,   0.00,   0.00, 1019.4,   79.6, -999.0
28-05-2023, 00:19:25,     20,    0.0,    9.6,   0.00,   0.00, 1019.4,   79.5, -999.0
28-05-2023, 00:19:35,     20,    0.0,    9.7,   0.00,   0.00, 1019.4,   79.5, -999.0
28-05-2023, 00:19:45,     19,    0.0,    9.6,   0.00,   0.00, 1019.4,   79.7, -999.0
28-05-2023, 00:19:55,     19,    0.0,    9.6,   0.00,   0.00, 1019.4,   79.8, -999.0
28-05-2023, 00:20:05,     20,    0.0,    9.6,   0.00,   0.00, 1019.4,   79.9, -999.0
28-05-2023, 00:20:15,     20,    0.0,    9.7,   0.00,   0.00, 1019.4,   79.9, -999.0
28-05-2023, 00:20:25,     19,    0.0,    9.6,   0.00,   0.00, 1019.4,   80.0, -999.0
28-05-2023, 00:20:35,     19,    0.0,    9.5,   0.00,   0.00, 1019.4,   79.8, -999.0
28-05-2023, 00:20:45,     19,    0.0,    9.6,   0.00,   0.00, 1019.4,   79.7, -999.0
28-05-2023, 00:20:55,     20,    0.0,    9.5,   0.00,   0.00, 1019.4,   79.6, -999.0
28-05-2023, 00:21:05,     20,    0.0,    9.6,   0.00,   0.00, 1019.4,   79.7, -999.0
28-05-2023, 00:21:15,     20,    0.0,    9.6,   0.00,   0.00, 1019.4,   79.8, -999.0
28-05-2023, 00:21:25,     20,    0.0,    9.6,   0.00,   0.00, 1019.4,   80.1, -999.0
28-05-2023, 00:21:35,     20,    0.0,    9.6,   0.00,   0.00, 1019.4,   80.3, -999.0
28-05-2023, 00:21:45,     22,    0.0,    9.6,   0.00,   0.00, 1019.4,   80.4, -999.0
28-05-2023, 00:21:55,     20,    0.0,    9.6,   0.00,   0.00, 1019.4,   80.3, -999.0
28-05-2023, 00:22:05,     20,    0.0,    9.6,   0.00,   0.00, 1019.4,   80.1, -999.0
28-05-2023, 00:22:15,     19,    0.0,    9.6,   0.00,   0.00, 1019.4,   80.1, -999.0
28-05-2023, 00:22:25,     20,    0.0,    9.6,   0.00,   0.00, 1019.4,   80.2, -999.0
28-05-2023, 00:22:35,     19,    0.0,    9.6,   0.00,   0.00, 1019.4,   80.2, -999.0
28-05-2023, 00:22:45,     20,    0.0,    9.6,   0.00,   0.00, 1019.4,   80.3, -999.0
28-05-2023, 00:22:55,     20,    0.0,    9.4,   0.00,   0.00, 1019.4,   80.3, -999.0
28-05-2023, 00:23:05,     20,    0.0,    9.6,   0.00,   0.00, 1019.4,   80.5, -999.0
28-05-2023, 00:23:15,     20,    0.0,    9.5,   0.00,   0.00, 1019.4,   80.4, -999.0
28-05-2023, 00:23:25,     20,    0.0,    9.6,   0.00,   0.00, 1019.4,   80.7, -999.0
28-05-2023, 00:23:35,     20,    0.0,    9.5,   0.00,   0.00, 1019.4,   80.7, -999.0
28-05-2023, 00:23:45,     20,    0.0,    9.5,   0.00,   0.00, 1019.4,   80.8, -999.0
28-05-2023, 00:23:55,     20,    0.0,    9.6,   0.00,   0.00, 1019.4,   80.7, -999.0
28-05-2023, 00:24:05,     20,    0.0,    9.6,   0.00,   0.00, 1019.4,   80.9, -999.0
28-05-2023, 00:24:15,     20,    0.0,    9.5,   0.00,   0.00, 1019.5,   80.9, -999.0
28-05-2023, 00:24:24,     20,    0.0,    9.6,   0.00,   0.00, 1019.5,   80.7, -999.0
28-05-2023, 00:24:34,     20,    0.0,    9.5,   0.00,   0.00, 1019.4,   80.6, -999.0
28-05-2023, 00:24:45,     20,    0.0,    9.4,   0.00,   0.00, 1019.4,   80.7, -999.0
28-05-2023, 00:24:55,     19,    0.0,    9.6,   0.00,   0.00, 1019.5,   80.8, -999.0
28-05-2023, 00:25:04,     20,    0.0,    9.5,   0.00,   0.00, 1019.5,   80.8, -999.0
28-05-2023, 00:25:15,     20,    0.0,    9.5,   0.00,   0.00, 1019.5,   80.9, -999.0
28-05-2023, 00:25:25,     20,    0.0,    9.5,   0.00,   0.00, 1019.5,   81.0, -999.0
28-05-2023, 00:25:34,     20,    0.0,    9.6,   0.00,   0.00, 1019.5,   81.1, -999.0
28-05-2023, 00:25:44,     20,    0.0,    9.6,   0.00,   0.00, 1019.5,   81.1, -999.0
28-05-2023, 00:25:55,     20,    0.0,    9.6,   0.00,   0.00, 1019.5,   81.0, -999.0
28-05-2023, 00:26:04,     20,    0.0,    9.5,   0.00,   0.00, 1019.5,   80.8, -999.0
28-05-2023, 00:26:14,     20,    0.0,    9.6,   0.00,   0.00, 1019.5,   80.6, -999.0
28-05-2023, 00:26:24,     20,    0.0,    9.5,   0.00,   0.00, 1019.5,   80.6, -999.0
28-05-2023, 00:26:34,     20,    0.0,    9.5,   0.00,   0.00, 1019.5,   80.7, -999.0
28-05-2023, 00:26:44,     20,    0.0,    9.5,   0.00,   0.00, 1019.5,   81.1, -999.0
28-05-2023, 00:26:54,     19,    0.0,    9.5,   0.00,   0.00, 1019.5,   81.1, -999.0
28-05-2023, 00:27:04,     20,    0.0,    9.5,   0.00,   0.00, 1019.5,   81.2, -999.0
28-05-2023, 00:27:14,     20,    0.0,    9.5,   0.00,   0.00, 1019.5,   81.4, -999.0
28-05-2023, 00:27:24,     19,    0.0,    9.5,   0.00,   0.00, 1019.5,   81.4, -999.0
28-05-2023, 00:27:34,     20,    0.0,    9.4,   0.00,   0.00, 1019.5,   81.6, -999.0
28-05-2023, 00:27:44,     20,    0.0,    9.4,   0.00,   0.00, 1019.5,   81.8, -999.0
28-05-2023, 00:27:54,    311,    0.3,    9.3,   0.00,   0.00, 1019.6,   82.3, -999.0
28-05-2023, 00:28:04,    308,    0.9,    9.4,   0.00,   0.00, 1019.6,   82.6, -999.0
28-05-2023, 00:28:14,    307,    1.1,    9.4,   0.00,   0.00, 1019.6,   82.8, -999.0
28-05-2023, 00:28:24,    296,    1.6,    9.3,   0.00,   0.00, 1019.7,   83.0, -999.0
28-05-2023, 00:28:34,    295,    1.2,    9.3,   0.00,   0.00, 1019.6,   82.9, -999.0
28-05-2023, 00:28:44,    297,    0.6,    9.4,   0.00,   0.00, 1019.6,   82.9, -999.0
28-05-2023, 00:28:54,    315,    0.2,    9.2,   0.00,   0.00, 1019.6,   82.7, -999.0
28-05-2023, 00:29:04,    315,    0.1,    9.3,   0.00,   0.00, 1019.6,   82.8, -999.0
28-05-2023, 00:29:14,    314,    0.0,    9.2,   0.00,   0.00, 1019.5,   82.9, -999.0
28-05-2023, 00:29:24,    314,    0.0,    9.1,   0.00,   0.00, 1019.5,   83.0, -999.0
28-05-2023, 00:29:34,    315,    0.0,    9.2,   0.00,   0.00, 1019.5,   83.5, -999.0
28-05-2023, 00:29:44,    315,    0.0,    9.1,   0.00,   0.00, 1019.5,   83.6, -999.0
28-05-2023, 00:29:54,    315,    0.5,    9.3,   0.00,   0.00, 1019.6,   84.0, -999.0
28-05-2023, 00:30:04,    315,    0.4,    9.2,   0.00,   0.00, 1019.6,   84.4, -999.0
28-05-2023, 00:30:14,    315,    0.1,    9.1,   0.00,   0.00, 1019.5,   84.5, -999.0
28-05-2023, 00:30:24,    315,    0.0,    9.1,   0.00,   0.00, 1019.5,   84.4, -999.0
28-05-2023, 00:30:34,    315,    0.2,    9.1,   0.00,   0.00, 1019.5,   85.0, -999.0
28-05-2023, 00:30:44,    311,    0.0,    9.0,   0.00,   0.00, 1019.5,   84.9, -999.0
28-05-2023, 00:30:53,    311,    0.0,    9.0,   0.00,   0.00, 1019.5,   85.1, -999.0
28-05-2023, 00:31:04,    311,    0.0,    9.1,   0.00,   0.00, 1019.5,   85.4, -999.0
28-05-2023, 00:31:14,    311,    0.0,    9.0,   0.00,   0.00, 1019.5,   85.5, -999.0
28-05-2023, 00:31:24,    311,    0.0,    9.1,   0.00,   0.00, 1019.5,   85.5, -999.0
28-05-2023, 00:31:33,    311,    0.0,    9.0,   0.00,   0.00, 1019.5,   85.4, -999.0
28-05-2023, 00:31:44,    311,    0.0,    9.0,   0.00,   0.00, 1019.4,   85.3, -999.0
28-05-2023, 00:31:54,    311,    0.0,    9.3,   0.00,   0.00, 1019.5,   85.4, -999.0
28-05-2023, 00:32:03,    311,    0.0,    9.0,   0.00,   0.00, 1019.4,   85.5, -999.0
28-05-2023, 00:32:14,    311,    0.0,    9.0,   0.00,   0.00, 1019.5,   85.9, -999.0
28-05-2023, 00:32:24,    311,    0.0,    9.0,   0.00,   0.00, 1019.4,   85.8, -999.0
28-05-2023, 00:32:33,    311,    0.0,    9.0,   0.00,   0.00, 1019.5,   85.9, -999.0
28-05-2023, 00:32:43,    312,    0.0,    9.0,   0.00,   0.00, 1019.5,   85.9, -999.0
28-05-2023, 00:32:54,    311,    0.0,    8.9,   0.00,   0.00, 1019.5,   86.1, -999.0
28-05-2023, 00:33:04,    311,    0.0,    8.9,   0.00,   0.00, 1019.4,   86.1, -999.0
28-05-2023, 00:33:13,    311,    0.0,    8.8,   0.00,   0.00, 1019.4,   86.2, -999.0
28-05-2023, 00:33:23,    311,    0.0,    9.0,   0.00,   0.00, 1019.4,   86.2, -999.0
28-05-2023, 00:33:34,    311,    0.0,    9.0,   0.00,   0.00, 1019.5,   86.2, -999.0
28-05-2023, 00:33:43,    311,    0.0,    8.9,   0.00,   0.00, 1019.4,   86.6, -999.0
28-05-2023, 00:33:53,    311,    0.0,    9.0,   0.00,   0.00, 1019.4,   86.7, -999.0
28-05-2023, 00:34:03,    311,    0.0,    8.9,   0.00,   0.00, 1019.5,   86.7, -999.0
28-05-2023, 00:34:13,    311,    0.0,    9.0,   0.00,   0.00, 1019.5,   86.6, -999.0
28-05-2023, 00:34:23,    311,    0.0,    8.9,   0.00,   0.00, 1019.5,   86.6, -999.0
28-05-2023, 00:34:33,    311,    0.0,    9.0,   0.00,   0.00, 1019.5,   86.5, -999.0
28-05-2023, 00:34:43,    311,    0.0,    9.0,   0.00,   0.00, 1019.4,   86.7, -999.0
28-05-2023, 00:34:53,    311,    0.0,    9.0,   0.00,   0.00, 1019.5,   86.8, -999.0
28-05-2023, 00:35:03,    311,    0.0,    9.0,   0.00,   0.00, 1019.5,   86.7, -999.0
28-05-2023, 00:35:13,    311,    0.0,    8.9,   0.00,   0.00, 1019.5,   86.8, -999.0
28-05-2023, 00:35:23,    311,    0.0,    8.9,   0.00,   0.00, 1019.5,   87.0, -999.0
28-05-2023, 00:35:33,    311,    0.0,    8.9,   0.00,   0.00, 1019.5,   87.1, -999.0
28-05-2023, 00:35:43,    311,    0.0,    9.0,   0.00,   0.00, 1019.5,   87.2, -999.0
28-05-2023, 00:35:53,    311,    0.0,    9.0,   0.00,   0.00, 1019.5,   87.2, -999.0
28-05-2023, 00:36:03,    311,    0.0,    9.0,   0.00,   0.00, 1019.5,   87.5, -999.0
28-05-2023, 00:36:13,    311,    0.0,    9.0,   0.00,   0.00, 1019.5,   87.2, -999.0
28-05-2023, 00:36:23,    311,    0.0,    9.0,   0.00,   0.00, 1019.5,   87.2, -999.0
28-05-2023, 00:36:33,    311,    0.0,    9.0,   0.00,   0.00, 1019.5,   87.0, -999.0
28-05-2023, 00:36:43,    311,    0.0,    8.9,   0.00,   0.00, 1019.5,   86.8, -999.0
28-05-2023, 00:36:53,    311,    0.0,    9.1,   0.00,   0.00, 1019.5,   86.7, -999.0
28-05-2023, 00:37:03,    311,    0.0,    9.0,   0.00,   0.00, 1019.5,   86.4, -999.0
28-05-2023, 00:37:13,    311,    0.0,    9.0,   0.00,   0.00, 1019.5,   86.2, -999.0
28-05-2023, 00:37:23,    311,    0.0,    9.0,   0.00,   0.00, 1019.5,   86.3, -999.0
28-05-2023, 00:37:33,    311,    0.0,    9.1,   0.00,   0.00, 1019.5,   86.4, -999.0
28-05-2023, 00:37:43,    311,    0.0,    9.0,   0.00,   0.00, 1019.4,   86.4, -999.0
28-05-2023, 00:37:53,    311,    0.0,    9.0,   0.00,   0.00, 1019.4,   86.3, -999.0
28-05-2023, 00:38:03,    311,    0.0,    9.1,   0.00,   0.00, 1019.5,   86.2, -999.0
28-05-2023, 00:38:13,    311,    0.0,    9.1,   0.00,   0.00, 1019.5,   86.2, -999.0
28-05-2023, 00:38:23,    311,    0.0,    9.0,   0.00,   0.00, 1019.5,   86.1, -999.0
28-05-2023, 00:38:33,    311,    0.0,    9.0,   0.00,   0.00, 1019.5,   86.2, -999.0
28-05-2023, 00:38:42,    311,    0.0,    9.1,   0.00,   0.00, 1019.5,   86.2, -999.0
28-05-2023, 00:38:53,    311,    0.0,    9.0,   0.00,   0.00, 1019.5,   86.3, -999.0
28-05-2023, 00:39:03,    311,    0.0,    9.0,   0.00,   0.00, 1019.4,   86.4, -999.0
28-05-2023, 00:39:13,    311,    0.0,    8.9,   0.00,   0.00, 1019.5,   86.5, -999.0
28-05-2023, 00:39:22,    311,    0.0,    8.9,   0.00,   0.00, 1019.4,   86.6, -999.0
28-05-2023, 00:39:33,    311,    0.0,    8.9,   0.00,   0.00, 1019.5,   86.5, -999.0
28-05-2023, 00:39:43,    311,    0.0,    9.0,   0.00,   0.00, 1019.5,   86.4, -999.0
28-05-2023, 00:39:52,    311,    0.0,    9.0,   0.00,   0.00, 1019.4,   86.5, -999.0
28-05-2023, 00:40:02,    311,    0.0,    9.0,   0.00,   0.00, 1019.4,   86.6, -999.0
28-05-2023, 00:40:13,    311,    0.0,    8.9,   0.00,   0.00, 1019.5,   86.7, -999.0
28-05-2023, 00:40:23,    311,    0.0,    9.0,   0.00,   0.00, 1019.4,   86.5, -999.0
28-05-2023, 00:40:32,    311,    0.0,    9.0,   0.00,   0.00, 1019.4,   86.4, -999.0
28-05-2023, 00:40:42,    311,    0.0,    8.9,   0.00,   0.00, 1019.4,   86.4, -999.0
28-05-2023, 00:40:53,    311,    0.0,    8.9,   0.00,   0.00, 1019.5,   86.4, -999.0
28-05-2023, 00:41:02,    311,    0.0,    8.9,   0.00,   0.00, 1019.5,   86.4, -999.0
28-05-2023, 00:41:12,    311,    0.0,    9.0,   0.00,   0.00, 1019.5,   86.4, -999.0
28-05-2023, 00:41:22,    311,    0.0,    8.9,   0.00,   0.00, 1019.5,   86.4, -999.0
28-05-2023, 00:41:32,    311,    0.0,    8.9,   0.00,   0.00, 1019.5,   86.3, -999.0
28-05-2023, 00:41:42,    311,    0.0,    8.9,   0.00,   0.00, 1019.5,   86.4, -999.0
28-05-2023, 00:41:52,    311,    0.0,    8.9,   0.00,   0.00, 1019.5,   86.5, -999.0
28-05-2023, 00:42:02,    311,    0.0,    8.8,   0.00,   0.00, 1019.5,   86.5, -999.0
28-05-2023, 00:42:12,    312,    0.0,    8.8,   0.00,   0.00, 1019.5,   86.6, -999.0
28-05-2023, 00:42:22,    311,    0.0,    8.8,   0.00,   0.00, 1019.5,   86.6, -999.0
28-05-2023, 00:42:32,    311,    0.0,    8.9,   0.00,   0.00, 1019.5,   86.7, -999.0
28-05-2023, 00:42:42,    311,    0.0,    8.9,   0.00,   0.00, 1019.5,   86.9, -999.0
28-05-2023, 00:42:52,    312,    0.0,    9.0,   0.00,   0.00, 1019.5,   87.0, -999.0
28-05-2023, 00:43:02,    311,    0.0,    8.9,   0.00,   0.00, 1019.5,   87.0, -999.0
28-05-2023, 00:43:12,    311,    0.0,    8.8,   0.00,   0.00, 1019.5,   87.1, -999.0
28-05-2023, 00:43:22,    311,    0.0,    8.8,   0.00,   0.00, 1019.5,   87.1, -999.0
28-05-2023, 00:43:32,    311,    0.0,    8.8,   0.00,   0.00, 1019.5,   87.1, -999.0
28-05-2023, 00:43:42,    311,    0.0,    8.7,   0.00,   0.00, 1019.5,   87.2, -999.0
28-05-2023, 00:43:52,    311,    0.0,    8.7,   0.00,   0.00, 1019.5,   87.3, -999.0
28-05-2023, 00:44:02,    311,    0.0,    8.8,   0.00,   0.00, 1019.5,   87.5, -999.0
28-05-2023, 00:44:12,    311,    0.0,    8.8,   0.00,   0.00, 1019.5,   87.7, -999.0
28-05-2023, 00:44:22,    311,    0.0,    8.8,   0.00,   0.00, 1019.5,   87.8, -999.0
28-05-2023, 00:44:32,    311,    0.0,    8.8,   0.00,   0.00, 1019.5,   88.0, -999.0
28-05-2023, 00:44:42,    311,    0.0,    8.8,   0.00,   0.00, 1019.4,   88.1, -999.0
28-05-2023, 00:44:52,    311,    0.0,    8.8,   0.00,   0.00, 1019.5,   88.1, -999.0
28-05-2023, 00:45:02,    311,    0.0,    8.7,   0.00,   0.00, 1019.5,   88.0, -999.0
28-05-2023, 00:45:12,    311,    0.0,    8.8,   0.00,   0.00, 1019.5,   88.0, -999.0
28-05-2023, 00:45:22,    312,    0.0,    8.7,   0.00,   0.00, 1019.4,   88.2, -999.0
28-05-2023, 00:45:32,    311,    0.0,    8.8,   0.00,   0.00, 1019.5,   88.7, -999.0
28-05-2023, 00:45:42,    311,    0.0,    8.7,   0.00,   0.00, 1019.5,   89.1, -999.0
28-05-2023, 00:45:52,    311,    0.0,    8.7,   0.00,   0.00, 1019.5,   89.2, -999.0
28-05-2023, 00:46:01,    311,    0.0,    8.7,   0.00,   0.00, 1019.4,   89.2, -999.0
28-05-2023, 00:46:12,    311,    0.0,    8.7,   0.00,   0.00, 1019.5,   89.1, -999.0
28-05-2023, 00:46:22,    311,    0.0,    8.7,   0.00,   0.00, 1019.4,   89.0, -999.0
28-05-2023, 00:46:32,    311,    0.0,    8.7,   0.00,   0.00, 1019.4,   89.2, -999.0
28-05-2023, 00:46:42,    311,    0.0,    8.6,   0.00,   0.00, 1019.4,   89.2, -999.0
28-05-2023, 00:46:52,    311,    0.0,    8.6,   0.00,   0.00, 1019.4,   89.3, -999.0